Gage, OK

6:48 AM CDT on July 25, 2017 (GMT -0500)
Gage

Weather History for KGAG - March, 2014

Change the Weather History Date:

Wednesday, March 19, 2014

  Actual Average Record
Temperature  
Mean Temperature 44 °F -  
Max Temperature 60 °F 61 °F 95 °F (2017)
Min Temperature 28 °F 35 °F 14 °F (1965)
Degree Days  
Heating Degree Days 22    
Moisture  
Dew Point 21 °F    
Average Humidity 48    
Maximum Humidity 82    
Minimum Humidity 16    
Precipitation  
Precipitation 0.00 in - - ()
Sea Level Pressure  
Sea Level Pressure 30.17 in    
Wind  
Wind Speed 9 mph (NW)    
Max Wind Speed 14 mph    
Max Gust Speed 17 mph    
Visibility 10 miles    
Events      
Averages and records for this station are not official NWS values.
T = Trace of Precipitation, MM = Missing Value Source: NWS Daily Summary

Daily Weather History Graph

Daily Weather History Graph

Search for Another Location

Airport or City:

Trip Planner

Search our weather history database for the weather conditions in past years. The results will help you decide how hot, cold, wet, or windy it might be!

Date:

Astronomy

Mar. 19, 2014 Rise Set
Actual Time 7:44 AM CDT 7:50 PM CDT
Civil Twilight 7:18 AM CDT 8:15 PM CDT
Nautical Twilight 6:48 AM CDT 8:45 PM CDT
Astronomical Twilight 6:18 AM CDT 9:16 PM CDT
Moon 11:04 PM CDT (3/19) 9:16 AM CDT (3/19)
Length of Visible Light 12h 57m
Length of Day
12h 06m
Waning Gibbous, 91% of the Moon is Illuminated
Mar 19
Waning Gibbous
Mar 23
Last Quarter
Mar 30
New
Apr 7
First Quarter
Apr 15
Full

Hourly Weather History & Observations

Time (CDT) Temp. Windchill Dew Point Humidity Pressure Visibility Wind Dir Wind Speed Gust Speed Precip Events Conditions
12:53 AM 36.0 °F 29.0 °F 26.1 °F 67% 30.04 in 10.0 mi NW 9.2 mph - N/A   Clear
1:53 AM 37.0 °F 29.8 °F 27.0 °F 67% 30.05 in 10.0 mi WNW 10.4 mph - N/A   Clear
2:53 AM 35.1 °F 28.6 °F 26.1 °F 70% 30.05 in 10.0 mi NW 8.1 mph - N/A   Clear
3:53 AM 34.0 °F 27.2 °F 26.1 °F 73% 30.06 in 10.0 mi NNW 8.1 mph - N/A   Clear
4:53 AM 34.0 °F 26.6 °F 26.1 °F 73% 30.09 in 10.0 mi NW 9.2 mph - N/A   Clear
5:53 AM 30.9 °F 24.3 °F 25.0 °F 79% 30.14 in 10.0 mi NW 6.9 mph - N/A   Clear
6:53 AM 30.0 °F 22.4 °F 25.0 °F 82% 30.18 in 10.0 mi NNW 8.1 mph - N/A   Clear
7:53 AM 28.9 °F 21.9 °F 24.1 °F 82% 30.21 in 10.0 mi NW 6.9 mph - N/A   Clear
8:53 AM 36.0 °F 27.1 °F 27.0 °F 70% 30.24 in 10.0 mi NW 13.8 mph - N/A   Clear
9:53 AM 41.0 °F 34.3 °F 28.0 °F 60% 30.27 in 10.0 mi NNW 11.5 mph - N/A   Clear
10:53 AM 45.0 °F 39.7 °F 27.0 °F 49% 30.28 in 10.0 mi North 10.4 mph - N/A   Clear
11:53 AM 48.9 °F - 25.0 °F 39% 30.28 in 10.0 mi NW 9.2 mph - N/A   Clear
12:53 PM 51.1 °F - 21.9 °F 32% 30.26 in 10.0 mi NNW 13.8 mph 17.3 mph N/A   Clear
1:53 PM 54.0 °F - 19.0 °F 25% 30.23 in 10.0 mi NW 6.9 mph - N/A   Clear
2:53 PM 55.0 °F - 18.0 °F 23% 30.19 in 10.0 mi NNW 9.2 mph - N/A   Clear
3:53 PM 57.0 °F - 17.1 °F 21% 30.17 in 10.0 mi WNW 9.2 mph - N/A   Clear
4:53 PM 59.0 °F - 12.9 °F 16% 30.15 in 10.0 mi West 10.4 mph - N/A   Clear
5:53 PM 59.0 °F - 12.9 °F 16% 30.15 in 10.0 mi NW 9.2 mph - N/A   Clear
6:53 PM 57.0 °F - 14.0 °F 18% 30.15 in 10.0 mi Calm Calm - N/A   Clear
7:53 PM 51.1 °F - 15.1 °F 24% 30.16 in 10.0 mi South 4.6 mph - N/A   Clear
8:53 PM 43.0 °F 38.8 °F 16.0 °F 34% 30.17 in 10.0 mi SSE 6.9 mph - N/A   Clear
9:53 PM 37.9 °F 31.5 °F 17.1 °F 43% 30.18 in 10.0 mi South 9.2 mph - N/A   Clear
10:53 PM 39.0 °F 33.4 °F 17.1 °F 41% 30.17 in 10.0 mi South 8.1 mph - N/A   Clear
11:53 PM 39.9 °F 32.9 °F 18.0 °F 41% 30.17 in 10.0 mi South 11.5 mph - N/A   Clear